Regional Weather Roundup
Issued by NWS Bismarck, ND

Home | Current Version | Previous Version | Text Only | Print | Product List | Glossary On
Versions: 1 2 3 4 5 6 7 8 9 10 11 12 13 14 15 16 17 18 19 20 21 22 23 24 25 26 27 28 29 30 31 32 33 34 35 36 37 38 39 40 41 42 43 44 45 46 47 48 49 50
037
ASUS43 KBIS 180102
RWRBIS

NWR BROADCAST TEXT
NATIONAL WEATHER SERVICE BISMARCK ND
700 PM CST SAT FEB 17 2018

NOTE: "FAIR" INDICATES FEW OR NO CLOUDS BELOW 12,000 FEET WITH NO
SIGNIFICANT WEATHER AND/OR OBSTRUCTIONS TO VISIBILITY.


CITY           SKY/WX    TMP DP  RH WIND       PRES   REMARKS
WILLISTON      FAIR      13   5  70 CALM      29.90F
MINOT          FAIR      14   4  64 W12       29.91S WCI   0
MINOT AFB      CLOUDY    10   3  75 W6        29.91R WCI   0
BISMARCK       FAIR      18   6  59 SW7       29.96S WCI   9
DICKINSON      MOCLDY    13   7  77 S6        29.84F WCI   4
GARRISON         N/A     13   5  70 NW9       29.89F WCI   1
HETTINGER ARPT CLOUDY    15   9  76 E5        29.87F WCI   8
JAMESTOWN      FAIR      18   9  68 W6        29.95R WCI  10
CARRINGTON     FAIR      16   9  73 W9        29.95S WCI   4
HAZEN            N/A     12   7  79 SW5       29.94R WCI   4
LINTON           N/A     14   9  79 W7        29.98R WCI   4
MANDAN         MOCLDY    14   9  79 SW6       29.94S WCI   5
OAKES            N/A     18   7  62 W5        29.99S WCI  11
RUGBY          MOCLDY     7   1  78 NW9       29.91S WCI  -7
STANLEY        MOCLDY    10   3  72 NW5       29.88F WCI   2
TIOGA          FAIR       9   3  78 W7        29.87F WCI  -3
WATFORD CITY   FAIR      12   5  73 CALM      29.88F
$$

CITY           SKY/WX    TMP DP  RH WIND       PRES   REMARKS
GRAND FORKS    CLOUDY    18  11  74 N7        29.97R WCI   9
GRAND FORKS AF CLOUDY    15   8  74 N6        29.96R WCI   6
DEVILS LAKE    FAIR      11   5  77 W9        29.93R WCI  -2
FARGO          FAIR      17   8  67 SW6       30.00R WCI   9
CANDO          FAIR      10   3  72 W13       29.93S WCI  -5
CAVALIER         N/A     12   1  62 NW8       29.96R WCI   1
GRAFTON        FAIR      14   5  67 NW8       29.99R WCI   3
GWINNER          N/A     18   7  62 W5        29.99S WCI  11
LANGDON        CLOUDY    10   3  72 W7        29.91R WCI   0
ROLLA          FLURRIES  10   3  72 W14       29.88R WCI  -5
WALHALLA       FAIR      10  -2  56 NW6       29.96R WCI   1
$$

CITY           SKY/WX    TMP DP  RH WIND       PRES   REMARKS
ABERDEEN       PTCLDY    15   8  73 SW8       30.02R WCI   4
MOBRIDGE       MOCLDY    18  10  71 N3        29.94F
BUFFALO          N/A     16  10  77 E7        29.74F WCI   6
RAPID CITY     MOCLDY    24  18  77 CALM      29.84F
GLASGOW        CLOUDY    13   7  77 E8        29.81F WCI   2
SIDNEY         CLOUDY    15   8  73 CALM      29.88F
WOLF POINT     CLOUDY    16   7  67 CALM      29.86F
GLENDIVE       CLOUDY    16  11  80 E3        29.82F
MILES CITY     CLOUDY    19  12  74 E8        29.75F WCI   9
BAKER          CLOUDY    14  10  84 E10       29.78F WCI   1
$$

CITY           SKY/WX    TMP DP  RH WIND       PRES   REMARKS
BILLINGS       CLOUDY    20  18  92 NE9       29.58F WCI   9
GREAT FALLS    SNOW      18  15  88 NE15      29.43F VSB 1/2 WCI   4
$$





USA.gov is the U.S. government's official web portal to all federal, state and local government web resources and services.